Time,TemperatureF,DewpointF,PressureIn,WindDirection,WindDirectionDegrees,WindSpeedMPH,WindSpeedGustMPH,Humidity,HourlyPrecipIn,Conditions,Clouds,dailyrainin,SoftwareType,DateUTC
2013-06-17 00:00:00,67.5,65.1,30.04,West,271,0.0,0.0,92,0.00,,,0.00,Wunderground v.1.15,2013-06-17 04:00:00,
2013-06-17 00:05:00,67.5,65.1,30.04,West,271,0.0,0.0,92,0.00,,,0.00,Wunderground v.1.15,2013-06-17 04:05:00,
2013-06-17 00:10:00,67.5,65.1,30.03,West,271,0.0,0.0,92,0.00,,,0.00,Wunderground v.1.15,2013-06-17 04:10:00,
2013-06-17 00:15:00,67.4,65.0,30.03,West,271,0.0,0.0,92,0.00,,,0.00,Wunderground v.1.15,2013-06-17 04:15:00,
2013-06-17 00:20:00,67.4,65.0,30.04,West,271,0.0,0.0,92,0.00,,,0.00,Wunderground v.1.15,2013-06-17 04:20:00,
2013-06-17 00:25:00,67.3,64.9,30.04,West,271,0.0,0.0,92,0.00,,,0.00,Wunderground v.1.15,2013-06-17 04:25:00,
2013-06-17 00:30:00,67.3,64.9,30.03,West,271,0.0,0.0,92,0.00,,,0.00,Wunderground v.1.15,2013-06-17 04:30:00,
2013-06-17 00:35:00,67.3,64.9,30.03,West,271,0.0,0.0,92,0.00,,,0.00,Wunderground v.1.15,2013-06-17 04:35:00,
2013-06-17 00:40:00,67.2,64.8,30.03,West,271,0.0,0.0,92,0.00,,,0.00,Wunderground v.1.15,2013-06-17 04:40:00,
2013-06-17 00:45:00,67.1,64.7,30.03,West,271,0.0,0.0,92,0.00,,,0.00,Wunderground v.1.15,2013-06-17 04:45:00,
2013-06-17 00:50:00,67.0,64.6,30.03,West,271,0.0,0.0,92,0.00,,,0.00,Wunderground v.1.15,2013-06-17 04:50:00,
2013-06-17 00:55:00,66.9,64.5,30.03,West,271,0.0,0.0,92,0.00,,,0.00,Wunderground v.1.15,2013-06-17 04:55:00,
2013-06-17 01:00:00,66.8,64.4,30.03,West,271,0.0,0.0,92,0.00,,,0.00,Wunderground v.1.15,2013-06-17 05:00:00,
2013-06-17 01:10:00,66.7,64.3,30.03,West,271,0.0,0.0,92,0.00,,,0.00,Wunderground v.1.15,2013-06-17 05:10:00,
2013-06-17 01:15:00,66.6,64.5,30.03,West,271,0.0,0.0,93,0.00,,,0.00,Wunderground v.1.15,2013-06-17 05:15:00,
2013-06-17 01:25:00,66.5,64.4,30.03,West,271,0.0,0.0,93,0.00,,,0.00,Wunderground v.1.15,2013-06-17 05:25:00,
2013-06-17 01:30:00,66.5,64.4,30.02,West,271,0.0,0.0,93,0.00,,,0.00,Wunderground v.1.15,2013-06-17 05:30:00,
2013-06-17 01:35:00,66.4,64.3,30.02,West,271,0.0,0.0,93,0.00,,,0.00,Wunderground v.1.15,2013-06-17 05:35:00,
2013-06-17 01:40:00,66.4,64.3,30.02,West,271,0.0,0.0,93,0.00,,,0.00,Wunderground v.1.15,2013-06-17 05:40:00,
2013-06-17 01:50:00,66.3,64.2,30.02,West,271,0.0,0.0,93,0.00,,,0.00,Wunderground v.1.15,2013-06-17 05:50:00,
2013-06-17 01:55:00,66.3,64.2,30.02,West,271,0.0,0.0,93,0.00,,,0.00,Wunderground v.1.15,2013-06-17 05:55:00,
2013-06-17 02:00:00,66.2,64.1,30.02,West,271,0.0,0.0,93,0.00,,,0.00,Wunderground v.1.15,2013-06-17 06:00:00,
2013-06-17 02:10:00,66.2,64.1,30.02,West,271,0.0,0.0,93,0.00,,,0.00,Wunderground v.1.15,2013-06-17 06:10:00,
2013-06-17 02:15:00,66.2,64.1,30.02,West,271,0.0,0.0,93,0.00,,,0.00,Wunderground v.1.15,2013-06-17 06:15:00,
2013-06-17 02:25:00,66.1,64.0,30.04,West,271,3.0,7.0,93,0.64,,,0.15,Wunderground v.1.15,2013-06-17 06:25:00,
2013-06-17 02:30:00,66.0,63.9,30.04,West,271,2.0,2.0,93,0.43,,,0.20,Wunderground v.1.15,2013-06-17 06:30:00,
2013-06-17 02:35:00,65.9,63.8,30.04,West,271,0.0,2.0,93,0.13,,,0.21,Wunderground v.1.15,2013-06-17 06:35:00,
2013-06-17 02:40:00,65.8,63.7,30.03,West,271,0.0,0.0,93,0.06,,,0.21,Wunderground v.1.15,2013-06-17 06:40:00,
2013-06-17 02:45:00,65.7,63.6,30.03,West,271,0.0,0.0,93,0.05,,,0.22,Wunderground v.1.15,2013-06-17 06:45:00,
2013-06-17 02:55:00,65.5,63.4,30.04,West,271,0.0,1.0,93,0.05,,,0.22,Wunderground v.1.15,2013-06-17 06:55:00,
2013-06-17 03:00:00,65.4,63.3,30.03,West,271,0.0,0.0,93,0.00,,,0.22,Wunderground v.1.15,2013-06-17 07:00:00,
2013-06-17 03:10:00,64.9,62.8,30.03,West,271,0.0,0.0,93,0.00,,,0.22,Wunderground v.1.15,2013-06-17 07:10:00,
2013-06-17 03:15:00,64.8,62.7,30.04,West,271,0.0,1.0,93,0.00,,,0.22,Wunderground v.1.15,2013-06-17 07:15:00,
2013-06-17 03:20:00,64.7,62.9,30.04,West,271,0.0,0.0,94,0.00,,,0.22,Wunderground v.1.15,2013-06-17 07:20:00,
2013-06-17 03:25:00,64.7,62.9,30.03,West,271,0.0,0.0,94,0.00,,,0.22,Wunderground v.1.15,2013-06-17 07:25:00,
2013-06-17 03:30:00,64.7,62.9,30.03,West,271,0.0,0.0,94,0.00,,,0.22,Wunderground v.1.15,2013-06-17 07:30:00,
2013-06-17 03:40:00,64.7,62.9,30.03,West,271,0.0,0.0,94,0.00,,,0.22,Wunderground v.1.15,2013-06-17 07:40:00,
2013-06-17 03:45:00,64.6,62.8,30.03,West,271,0.0,0.0,94,0.00,,,0.22,Wunderground v.1.15,2013-06-17 07:45:00,
2013-06-17 03:55:00,64.6,62.8,30.03,West,271,0.0,0.0,94,0.00,,,0.22,Wunderground v.1.15,2013-06-17 07:55:00,
2013-06-17 04:00:00,64.7,62.9,30.02,West,271,0.0,0.0,94,0.00,,,0.22,Wunderground v.1.15,2013-06-17 08:00:00,
2013-06-17 04:05:00,64.7,62.9,30.02,West,271,0.0,0.0,94,0.00,,,0.22,Wunderground v.1.15,2013-06-17 08:05:00,
2013-06-17 04:10:00,64.7,62.9,30.02,West,271,0.0,0.0,94,0.00,,,0.22,Wunderground v.1.15,2013-06-17 08:10:00,
2013-06-17 04:20:00,64.5,62.7,30.02,West,271,0.0,0.0,94,0.00,,,0.22,Wunderground v.1.15,2013-06-17 08:20:00,
2013-06-17 04:25:00,64.5,62.7,30.02,West,271,0.0,0.0,94,0.00,,,0.22,Wunderground v.1.15,2013-06-17 08:25:00,
2013-06-17 04:30:00,64.6,62.8,30.02,West,271,0.0,0.0,94,0.00,,,0.22,Wunderground v.1.15,2013-06-17 08:30:00,
2013-06-17 04:40:00,64.4,62.6,30.03,West,271,0.0,0.0,94,0.00,,,0.22,Wunderground v.1.15,2013-06-17 08:40:00,
2013-06-17 04:50:00,64.3,62.5,30.03,West,271,0.0,0.0,94,0.00,,,0.22,Wunderground v.1.15,2013-06-17 08:50:00,
2013-06-17 04:55:00,64.3,62.5,30.03,West,271,0.0,0.0,94,0.00,,,0.22,Wunderground v.1.15,2013-06-17 08:55:00,
2013-06-17 05:00:00,64.3,62.5,30.03,West,271,0.0,0.0,94,0.00,,,0.22,Wunderground v.1.15,2013-06-17 09:00:00,
2013-06-17 05:10:00,64.3,62.5,30.04,West,271,0.0,0.0,94,0.00,,,0.22,Wunderground v.1.15,2013-06-17 09:10:00,
2013-06-17 05:15:00,64.3,62.5,30.03,West,271,0.0,0.0,94,0.00,,,0.22,Wunderground v.1.15,2013-06-17 09:15:00,
2013-06-17 05:25:00,64.2,62.4,30.03,West,271,0.0,0.0,94,0.00,,,0.22,Wunderground v.1.15,2013-06-17 09:25:00,
2013-06-17 05:30:00,64.1,62.3,30.03,West,271,0.0,0.0,94,0.00,,,0.22,Wunderground v.1.15,2013-06-17 09:30:00,
2013-06-17 05:35:00,64.0,62.2,30.03,West,271,0.0,0.0,94,0.00,,,0.22,Wunderground v.1.15,2013-06-17 09:35:00,
2013-06-17 05:40:00,64.0,62.2,30.02,West,271,0.0,0.0,94,0.00,,,0.22,Wunderground v.1.15,2013-06-17 09:40:00,
2013-06-17 05:50:00,63.8,62.0,30.02,West,271,0.0,0.0,94,0.00,,,0.22,Wunderground v.1.15,2013-06-17 09:50:00,
2013-06-17 05:55:00,63.7,61.9,30.03,West,271,0.0,0.0,94,0.00,,,0.22,Wunderground v.1.15,2013-06-17 09:55:00,
2013-06-17 06:00:00,63.6,61.8,30.03,West,271,0.0,0.0,94,0.00,,,0.22,Wunderground v.1.15,2013-06-17 10:00:00,
2013-06-17 06:10:00,63.5,61.7,30.03,West,271,0.0,0.0,94,0.00,,,0.22,Wunderground v.1.15,2013-06-17 10:10:00,
2013-06-17 06:15:00,63.5,61.7,30.03,West,271,0.0,0.0,94,0.00,,,0.22,Wunderground v.1.15,2013-06-17 10:15:00,
2013-06-17 06:20:00,63.5,62.0,30.02,West,271,0.0,0.0,95,0.00,,,0.22,Wunderground v.1.15,2013-06-17 10:20:00,
2013-06-17 06:25:00,63.5,62.0,30.02,West,271,0.0,0.0,95,0.00,,,0.22,Wunderground v.1.15,2013-06-17 10:25:00,
2013-06-17 06:30:00,63.5,62.0,30.02,WNW,293,0.0,0.0,95,0.00,,,0.22,Wunderground v.1.15,2013-06-17 10:30:00,
2013-06-17 06:40:00,63.5,62.0,30.02,WNW,293,0.0,0.0,95,0.00,,,0.22,Wunderground v.1.15,2013-06-17 10:40:00,
2013-06-17 06:45:00,63.6,62.1,30.02,WNW,293,0.0,0.0,95,0.00,,,0.22,Wunderground v.1.15,2013-06-17 10:45:00,
2013-06-17 06:55:00,63.7,62.2,30.03,WNW,293,0.0,0.0,95,0.00,,,0.22,Wunderground v.1.15,2013-06-17 10:55:00,
2013-06-17 07:00:00,63.8,62.3,30.03,WNW,293,0.0,0.0,95,0.00,,,0.22,Wunderground v.1.15,2013-06-17 11:00:00,
2013-06-17 07:05:00,63.8,62.3,30.03,WNW,293,0.0,0.0,95,0.00,,,0.22,Wunderground v.1.15,2013-06-17 11:05:00,
2013-06-17 07:10:00,63.9,62.4,30.03,WNW,293,0.0,0.0,95,0.00,,,0.22,Wunderground v.1.15,2013-06-17 11:10:00,
2013-06-17 07:20:00,64.0,62.5,30.03,WNW,293,0.0,0.0,95,0.00,,,0.22,Wunderground v.1.15,2013-06-17 11:20:00,
2013-06-17 07:25:00,64.1,62.6,30.03,WNW,293,0.0,0.0,95,0.00,,,0.22,Wunderground v.1.15,2013-06-17 11:25:00,
2013-06-17 07:30:00,64.2,62.7,30.03,WNW,293,0.0,0.0,95,0.00,,,0.22,Wunderground v.1.15,2013-06-17 11:30:00,
2013-06-17 07:40:00,64.4,62.9,30.03,WNW,293,0.0,0.0,95,0.00,,,0.22,Wunderground v.1.15,2013-06-17 11:40:00,
2013-06-17 07:45:00,64.5,63.0,30.03,WNW,293,0.0,0.0,95,0.00,,,0.22,Wunderground v.1.15,2013-06-17 11:45:00,
2013-06-17 07:50:00,64.5,63.0,30.03,WNW,293,0.0,0.0,95,0.00,,,0.22,Wunderground v.1.15,2013-06-17 11:50:00,
2013-06-17 07:55:00,64.5,63.0,30.03,WNW,293,0.0,0.0,95,0.00,,,0.22,Wunderground v.1.15,2013-06-17 11:55:00,
2013-06-17 08:00:00,64.5,63.0,30.04,WNW,293,0.0,0.0,95,0.00,,,0.22,Wunderground v.1.15,2013-06-17 12:00:00,
2013-06-17 08:10:00,64.8,63.3,30.03,WNW,293,0.0,0.0,95,0.00,,,0.22,Wunderground v.1.15,2013-06-17 12:10:00,
2013-06-17 08:20:00,65.1,63.6,30.03,WNW,293,0.0,0.0,95,0.00,,,0.22,Wunderground v.1.15,2013-06-17 12:20:00,
2013-06-17 08:25:00,65.1,63.6,30.03,WNW,293,0.0,0.0,95,0.00,,,0.22,Wunderground v.1.15,2013-06-17 12:25:00,
2013-06-17 08:30:00,65.3,63.8,30.03,WNW,293,0.0,0.0,95,0.00,,,0.22,Wunderground v.1.15,2013-06-17 12:30:00,
2013-06-17 08:35:00,65.3,63.8,30.03,ESE,113,0.0,0.0,95,0.00,,,0.22,Wunderground v.1.15,2013-06-17 12:35:00,
2013-06-17 08:40:00,65.3,63.8,30.03,ESE,113,0.0,0.0,95,0.00,,,0.22,Wunderground v.1.15,2013-06-17 12:40:00,
2013-06-17 08:45:00,65.4,63.9,30.03,ESE,113,0.0,0.0,95,0.00,,,0.22,Wunderground v.1.15,2013-06-17 12:45:00,
2013-06-17 08:55:00,65.4,63.9,30.03,ESE,113,0.0,0.0,95,0.00,,,0.22,Wunderground v.1.15,2013-06-17 12:55:00,
2013-06-17 09:00:00,65.5,64.0,30.03,ESE,113,0.0,0.0,95,0.00,,,0.22,Wunderground v.1.15,2013-06-17 13:00:00,
2013-06-17 09:10:00,65.8,64.3,30.03,ESE,113,0.0,0.0,95,0.00,,,0.22,Wunderground v.1.15,2013-06-17 13:10:00,
2013-06-17 09:15:00,65.9,64.4,30.03,ESE,113,0.0,0.0,95,0.00,,,0.22,Wunderground v.1.15,2013-06-17 13:15:00,
2013-06-17 09:20:00,66.0,64.5,30.03,ESE,113,0.0,0.0,95,0.00,,,0.22,Wunderground v.1.15,2013-06-17 13:20:00,
2013-06-17 09:25:00,66.2,64.7,30.03,ESE,113,0.0,0.0,95,0.00,,,0.22,Wunderground v.1.15,2013-06-17 13:25:00,
2013-06-17 09:30:00,66.5,65.0,30.02,ESE,113,0.0,0.0,95,0.00,,,0.22,Wunderground v.1.15,2013-06-17 13:30:00,
2013-06-17 09:40:00,67.0,65.5,30.02,ESE,113,0.0,0.0,95,0.00,,,0.22,Wunderground v.1.15,2013-06-17 13:40:00,
2013-06-17 09:45:00,66.9,65.4,30.02,ESE,113,0.0,0.0,95,0.00,,,0.22,Wunderground v.1.15,2013-06-17 13:45:00,
2013-06-17 09:50:00,67.1,65.6,30.02,ESE,113,0.0,0.0,95,0.00,,,0.22,Wunderground v.1.15,2013-06-17 13:50:00,
2013-06-17 09:55:00,67.2,65.4,30.02,ESE,113,0.0,0.0,94,0.00,,,0.22,Wunderground v.1.15,2013-06-17 13:55:00,
2013-06-17 10:00:00,67.3,65.5,30.02,ESE,113,0.0,0.0,94,0.00,,,0.22,Wunderground v.1.15,2013-06-17 14:00:00,
2013-06-17 10:10:00,67.6,65.8,30.02,WNW,296,0.0,0.0,94,0.00,,,0.22,Wunderground v.1.15,2013-06-17 14:10:00,
2013-06-17 10:15:00,68.2,66.4,30.02,WNW,296,0.0,0.0,94,0.00,,,0.22,Wunderground v.1.15,2013-06-17 14:15:00,
2013-06-17 10:25:00,68.7,66.6,30.02,WNW,297,0.0,0.0,93,0.00,,,0.22,Wunderground v.1.15,2013-06-17 14:25:00,
2013-06-17 10:30:00,68.7,66.3,30.02,WNW,297,0.0,0.0,92,0.00,,,0.22,Wunderground v.1.15,2013-06-17 14:30:00,
2013-06-17 10:35:00,68.4,65.7,30.02,NW,304,0.0,0.0,91,0.00,,,0.22,Wunderground v.1.15,2013-06-17 14:35:00,
2013-06-17 10:40:00,68.3,65.9,30.03,NW,304,0.0,0.0,92,0.00,,,0.23,Wunderground v.1.15,2013-06-17 14:40:00,
2013-06-17 10:45:00,68.1,65.7,30.03,WNW,303,0.0,0.0,92,0.35,,,0.30,Wunderground v.1.15,2013-06-17 14:45:00,
2013-06-17 10:55:00,67.8,65.4,30.03,WNW,303,0.0,0.0,92,2.63,,,0.56,Wunderground v.1.15,2013-06-17 14:55:00,
2013-06-17 11:00:00,67.6,65.2,30.03,NW,304,0.0,0.0,92,2.38,,,0.71,Wunderground v.1.15,2013-06-17 15:00:00,
2013-06-17 11:05:00,67.3,65.2,30.04,WNW,303,0.0,0.0,93,2.29,,,0.86,Wunderground v.1.15,2013-06-17 15:05:00,
2013-06-17 11:10:00,67.0,64.9,30.04,WNW,303,0.0,1.0,93,0.50,,,0.99,Wunderground v.1.15,2013-06-17 15:10:00,
2013-06-17 11:15:00,66.9,64.8,30.03,WNW,303,0.0,1.0,93,0.87,,,1.09,Wunderground v.1.15,2013-06-17 15:15:00,
2013-06-17 11:25:00,66.8,64.7,30.04,WNW,303,0.0,0.0,93,0.06,,,1.10,Wunderground v.1.15,2013-06-17 15:25:00,
2013-06-17 11:30:00,66.8,65.0,30.04,WNW,303,0.0,0.0,94,0.04,,,1.10,Wunderground v.1.15,2013-06-17 15:30:00,
2013-06-17 11:40:00,66.9,65.1,30.04,WNW,303,0.0,0.0,94,0.00,,,1.10,Wunderground v.1.15,2013-06-17 15:40:00,
2013-06-17 11:45:00,66.9,65.1,30.04,WNW,303,0.0,0.0,94,0.00,,,1.10,Wunderground v.1.15,2013-06-17 15:45:00,
2013-06-17 11:50:00,67.1,65.3,30.04,WNW,303,0.0,0.0,94,0.00,,,1.10,Wunderground v.1.15,2013-06-17 15:50:00,
2013-06-17 11:55:00,67.4,65.6,30.04,WNW,303,0.0,0.0,94,0.00,,,1.10,Wunderground v.1.15,2013-06-17 15:55:00,
2013-06-17 12:00:00,67.6,65.8,30.04,WNW,303,0.0,0.0,94,0.00,,,1.10,Wunderground v.1.15,2013-06-17 16:00:00,
2013-06-17 12:10:00,67.8,66.0,30.03,WNW,303,0.0,0.0,94,0.00,,,1.10,Wunderground v.1.15,2013-06-17 16:10:00,
2013-06-17 12:15:00,68.7,66.9,30.03,WNW,303,0.0,0.0,94,0.00,,,1.10,Wunderground v.1.15,2013-06-17 16:15:00,
2013-06-17 12:25:00,69.7,67.9,30.02,WNW,303,0.0,0.0,94,0.00,,,1.10,Wunderground v.1.15,2013-06-17 16:25:00,
2013-06-17 12:30:00,70.4,68.6,30.02,WNW,303,0.0,0.0,94,0.00,,,1.10,Wunderground v.1.15,2013-06-17 16:30:00,
2013-06-17 12:35:00,71.3,69.2,30.02,WNW,303,0.0,0.0,93,0.00,,,1.10,Wunderground v.1.15,2013-06-17 16:35:00,
2013-06-17 12:40:00,71.5,69.1,30.02,NW,308,0.0,2.0,92,0.00,,,1.10,Wunderground v.1.15,2013-06-17 16:40:00,
2013-06-17 12:45:00,71.5,68.4,30.01,WSW,253,1.0,2.0,90,0.00,,,1.10,Wunderground v.1.15,2013-06-17 16:45:00,
2013-06-17 12:55:00,72.1,68.7,30.01,SW,232,1.0,1.0,89,0.00,,,1.10,Wunderground v.1.15,2013-06-17 16:55:00,
2013-06-17 13:00:00,72.8,70.0,30.01,West,271,0.0,2.0,91,0.00,,,1.10,Wunderground v.1.15,2013-06-17 17:00:00,
2013-06-17 13:10:00,73.9,70.1,30.01,NW,311,2.0,5.0,88,0.00,,,1.10,Wunderground v.1.15,2013-06-17 17:10:00,
2013-06-17 13:15:00,74.3,70.2,30.01,West,265,2.0,5.0,87,0.00,,,1.10,Wunderground v.1.15,2013-06-17 17:15:00,
2013-06-17 13:25:00,75.0,70.5,30.00,SW,234,2.0,3.0,86,0.00,,,1.10,Wunderground v.1.15,2013-06-17 17:25:00,
2013-06-17 13:30:00,75.7,70.9,30.00,NW,323,2.0,3.0,85,0.00,,,1.10,Wunderground v.1.15,2013-06-17 17:30:00,
2013-06-17 13:35:00,75.8,70.6,30.01,WNW,288,2.0,3.0,84,0.00,,,1.10,Wunderground v.1.15,2013-06-17 17:35:00,
2013-06-17 13:40:00,75.9,70.7,30.00,West,276,2.0,2.0,84,0.00,,,1.10,Wunderground v.1.15,2013-06-17 17:40:00,
2013-06-17 13:45:00,76.3,70.8,30.00,West,277,2.0,2.0,83,0.00,,,1.10,Wunderground v.1.15,2013-06-17 17:45:00,
2013-06-17 13:55:00,77.0,71.4,30.00,WNW,286,1.0,2.0,83,0.00,,,1.10,Wunderground v.1.15,2013-06-17 17:55:00,
2013-06-17 14:00:00,77.3,70.6,29.99,WNW,300,1.0,1.0,80,0.00,,,1.10,Wunderground v.1.15,2013-06-17 18:00:00,
2013-06-17 14:05:00,77.5,70.5,29.99,NW,324,1.0,1.0,79,0.00,,,1.10,Wunderground v.1.15,2013-06-17 18:05:00,
2013-06-17 14:10:00,77.8,71.1,29.99,WNW,290,2.0,2.0,80,0.00,,,1.10,Wunderground v.1.15,2013-06-17 18:10:00,
2013-06-17 14:20:00,77.6,71.7,29.99,South,191,1.0,1.0,82,0.00,,,1.10,Wunderground v.1.15,2013-06-17 18:20:00,
2013-06-17 14:25:00,77.5,71.9,29.99,South,180,1.0,1.0,83,0.00,,,1.10,Wunderground v.1.15,2013-06-17 18:25:00,
2013-06-17 14:30:00,78.0,71.0,29.99,WNW,290,1.0,1.0,79,0.00,,,1.10,Wunderground v.1.15,2013-06-17 18:30:00,
2013-06-17 14:40:00,79.3,72.6,29.98,WSW,249,1.0,1.0,80,0.00,,,1.10,Wunderground v.1.15,2013-06-17 18:40:00,
2013-06-17 14:45:00,80.1,72.2,29.98,West,279,1.0,1.0,77,0.00,,,1.10,Wunderground v.1.15,2013-06-17 18:45:00,
2013-06-17 14:55:00,80.4,70.5,29.98,West,281,2.0,2.0,72,0.00,,,1.10,Wunderground v.1.15,2013-06-17 18:55:00,
2013-06-17 15:05:00,79.1,69.7,29.97,NW,319,1.0,2.0,73,0.00,,,1.10,Wunderground v.1.15,2013-06-17 19:05:00,
2013-06-17 15:10:00,77.3,69.1,29.97,WNW,292,2.0,2.0,76,0.00,,,1.11,Wunderground v.1.15,2013-06-17 19:10:00,
2013-06-17 15:15:00,74.9,68.7,29.97,West,279,2.0,2.0,81,0.30,,,1.14,Wunderground v.1.15,2013-06-17 19:15:00,
2013-06-17 15:25:00,74.0,69.9,29.97,West,279,0.0,1.0,87,0.06,,,1.14,Wunderground v.1.15,2013-06-17 19:25:00,
2013-06-17 15:30:00,73.6,69.5,29.97,West,279,0.0,0.0,87,0.04,,,1.14,Wunderground v.1.15,2013-06-17 19:30:00,
2013-06-17 15:35:00,73.1,69.3,29.97,West,279,0.0,0.0,88,0.00,,,1.14,Wunderground v.1.15,2013-06-17 19:35:00,
2013-06-17 15:40:00,72.8,69.4,29.96,West,279,0.0,0.0,89,0.00,,,1.14,Wunderground v.1.15,2013-06-17 19:40:00,
2013-06-17 15:45:00,72.5,69.1,29.96,West,279,0.0,0.0,89,0.00,,,1.14,Wunderground v.1.15,2013-06-17 19:45:00,
2013-06-17 15:55:00,72.9,70.1,29.95,West,279,0.0,1.0,91,0.00,,,1.14,Wunderground v.1.15,2013-06-17 19:55:00,
2013-06-17 16:00:00,73.8,71.0,29.95,West,277,0.0,0.0,91,0.00,,,1.14,Wunderground v.1.15,2013-06-17 20:00:00,
2013-06-17 16:10:00,75.0,71.5,29.94,WSW,253,0.0,0.0,89,0.00,,,1.14,Wunderground v.1.15,2013-06-17 20:10:00,
2013-06-17 16:15:00,75.3,71.5,29.94,WSW,254,0.0,0.0,88,0.00,,,1.14,Wunderground v.1.15,2013-06-17 20:15:00,
2013-06-17 16:25:00,76.0,71.8,29.93,WSW,254,0.0,0.0,87,0.00,,,1.14,Wunderground v.1.15,2013-06-17 20:25:00,
2013-06-17 16:30:00,76.1,71.6,29.93,WSW,253,0.0,0.0,86,0.00,,,1.14,Wunderground v.1.15,2013-06-17 20:30:00,
2013-06-17 16:35:00,76.6,72.1,29.93,WSW,253,0.0,1.0,86,0.00,,,1.14,Wunderground v.1.15,2013-06-17 20:35:00,
2013-06-17 16:40:00,77.2,72.7,29.93,WSW,253,0.0,0.0,86,0.00,,,1.14,Wunderground v.1.15,2013-06-17 20:40:00,
2013-06-17 16:45:00,77.3,72.4,29.92,WSW,253,0.0,0.0,85,0.00,,,1.14,Wunderground v.1.15,2013-06-17 20:45:00,
2013-06-17 16:55:00,77.1,72.2,29.92,WSW,253,0.0,0.0,85,0.00,,,1.14,Wunderground v.1.15,2013-06-17 20:55:00,
2013-06-17 17:00:00,77.1,72.2,29.92,WSW,253,0.0,0.0,85,0.00,,,1.14,Wunderground v.1.15,2013-06-17 21:00:00,
2013-06-17 17:10:00,77.3,72.1,29.92,WSW,253,0.0,0.0,84,0.00,,,1.14,Wunderground v.1.15,2013-06-17 21:10:00,
2013-06-17 17:15:00,77.5,72.3,29.92,WSW,253,0.0,0.0,84,0.00,,,1.14,Wunderground v.1.15,2013-06-17 21:15:00,
2013-06-17 17:20:00,77.7,72.8,29.92,NW,308,0.0,1.0,85,0.00,,,1.14,Wunderground v.1.15,2013-06-17 21:20:00,
2013-06-17 17:25:00,77.5,72.3,29.93,West,269,1.0,1.0,84,0.00,,,1.14,Wunderground v.1.15,2013-06-17 21:25:00,
2013-06-17 17:30:00,77.4,72.2,29.92,West,267,1.0,1.0,84,0.00,,,1.14,Wunderground v.1.15,2013-06-17 21:30:00,
2013-06-17 17:40:00,77.4,71.8,29.93,West,260,1.0,1.0,83,0.00,,,1.14,Wunderground v.1.15,2013-06-17 21:40:00,
2013-06-17 17:45:00,77.7,72.5,29.92,West,260,1.0,1.0,84,0.00,,,1.14,Wunderground v.1.15,2013-06-17 21:45:00,
2013-06-17 17:55:00,77.8,72.6,29.92,West,260,0.0,0.0,84,0.00,,,1.14,Wunderground v.1.15,2013-06-17 21:55:00,
2013-06-17 18:00:00,77.4,71.8,29.92,West,260,0.0,1.0,83,0.00,,,1.14,Wunderground v.1.15,2013-06-17 22:00:00,
2013-06-17 18:05:00,76.6,71.0,29.92,West,260,0.0,1.0,83,0.00,,,1.14,Wunderground v.1.15,2013-06-17 22:05:00,
2013-06-17 18:10:00,76.2,71.0,29.92,West,260,0.0,0.0,84,0.00,,,1.14,Wunderground v.1.15,2013-06-17 22:10:00,
2013-06-17 18:15:00,75.8,71.0,29.92,West,260,0.0,0.0,85,0.00,,,1.14,Wunderground v.1.15,2013-06-17 22:15:00,
2013-06-17 18:25:00,75.4,70.2,29.92,West,260,0.0,1.0,84,0.00,,,1.14,Wunderground v.1.15,2013-06-17 22:25:00,
2013-06-17 18:30:00,75.0,69.8,29.92,West,260,0.0,0.0,84,0.00,,,1.14,Wunderground v.1.15,2013-06-17 22:30:00,
2013-06-17 18:35:00,74.8,70.0,29.92,West,260,0.0,0.0,85,0.00,,,1.14,Wunderground v.1.15,2013-06-17 22:35:00,
2013-06-17 18:40:00,74.6,70.1,29.92,West,260,0.0,1.0,86,0.00,,,1.14,Wunderground v.1.15,2013-06-17 22:40:00,
2013-06-17 18:50:00,74.4,69.9,29.92,West,260,0.0,0.0,86,0.00,,,1.14,Wunderground v.1.15,2013-06-17 22:50:00,
2013-06-17 18:55:00,74.3,70.2,29.92,West,260,0.0,0.0,87,0.00,,,1.14,Wunderground v.1.15,2013-06-17 22:55:00,
2013-06-17 19:00:00,74.2,70.1,29.92,West,260,0.0,0.0,87,0.00,,,1.14,Wunderground v.1.15,2013-06-17 23:00:00,
2013-06-17 19:10:00,74.2,70.1,29.92,West,260,0.0,0.0,87,0.00,,,1.14,Wunderground v.1.15,2013-06-17 23:10:00,
2013-06-17 19:15:00,74.3,70.2,29.92,West,260,0.0,0.0,87,0.00,,,1.14,Wunderground v.1.15,2013-06-17 23:15:00,
2013-06-17 19:20:00,74.5,70.7,29.92,West,260,0.0,0.0,88,0.00,,,1.14,Wunderground v.1.15,2013-06-17 23:20:00,
2013-06-17 19:25:00,74.6,70.5,29.92,West,260,0.0,0.0,87,0.00,,,1.14,Wunderground v.1.15,2013-06-17 23:25:00,
2013-06-17 19:30:00,74.4,70.6,29.92,West,260,0.0,0.0,88,0.00,,,1.14,Wunderground v.1.15,2013-06-17 23:30:00,
2013-06-17 19:40:00,74.3,70.5,29.92,West,260,0.0,0.0,88,0.00,,,1.14,Wunderground v.1.15,2013-06-17 23:40:00,
2013-06-17 19:50:00,73.9,70.5,29.92,West,260,0.0,0.0,89,0.00,,,1.14,Wunderground v.1.15,2013-06-17 23:50:00,
2013-06-17 19:55:00,73.7,70.3,29.92,West,260,0.0,1.0,89,0.00,,,1.14,Wunderground v.1.15,2013-06-17 23:55:00,
2013-06-17 20:00:00,73.3,69.9,29.93,West,260,0.0,0.0,89,0.00,,,1.14,Wunderground v.1.15,2013-06-18 00:00:00,
2013-06-17 20:10:00,72.9,69.8,29.92,West,260,0.0,0.0,90,0.00,,,1.14,Wunderground v.1.15,2013-06-18 00:10:00,
2013-06-17 20:15:00,72.6,69.5,29.93,West,260,0.0,0.0,90,0.00,,,1.14,Wunderground v.1.15,2013-06-18 00:15:00,
2013-06-17 20:25:00,72.0,68.9,29.93,West,271,0.0,0.0,90,0.00,,,1.14,Wunderground v.1.15,2013-06-18 00:25:00,
2013-06-17 20:30:00,71.7,68.6,29.93,West,271,0.0,0.0,90,0.00,,,1.14,Wunderground v.1.15,2013-06-18 00:30:00,
2013-06-17 20:35:00,71.6,68.5,29.93,West,271,0.0,0.0,90,0.00,,,1.14,Wunderground v.1.15,2013-06-18 00:35:00,
2013-06-17 20:40:00,71.3,68.5,29.93,West,271,0.0,0.0,91,0.00,,,1.14,Wunderground v.1.15,2013-06-18 00:40:00,
2013-06-17 20:45:00,71.0,68.2,29.93,West,271,0.0,0.0,91,0.00,,,1.14,Wunderground v.1.15,2013-06-18 00:45:00,
2013-06-17 20:55:00,70.5,67.7,29.93,West,271,0.0,0.0,91,0.00,,,1.14,Wunderground v.1.15,2013-06-18 00:55:00,
2013-06-17 21:00:00,70.3,67.5,29.93,West,271,0.0,0.0,91,0.00,,,1.14,Wunderground v.1.15,2013-06-18 01:00:00,
2013-06-17 21:10:00,69.9,67.5,29.94,West,271,0.0,0.0,92,0.00,,,1.14,Wunderground v.1.15,2013-06-18 01:10:00,
2013-06-17 21:15:00,69.7,67.3,29.94,West,271,0.0,0.0,92,0.00,,,1.14,Wunderground v.1.15,2013-06-18 01:15:00,
2013-06-17 21:20:00,69.6,67.2,29.94,West,271,0.0,0.0,92,0.00,,,1.14,Wunderground v.1.15,2013-06-18 01:20:00,
2013-06-17 21:25:00,69.5,67.1,29.93,West,271,0.0,0.0,92,0.00,,,1.14,Wunderground v.1.15,2013-06-18 01:25:00,
2013-06-17 21:35:00,69.2,66.8,29.94,West,271,0.0,0.0,92,0.00,,,1.14,Wunderground v.1.15,2013-06-18 01:35:00,
2013-06-17 21:40:00,69.1,66.7,29.94,West,271,0.0,0.0,92,0.00,,,1.14,Wunderground v.1.15,2013-06-18 01:40:00,
2013-06-17 21:45:00,69.0,66.6,29.94,West,271,0.0,0.0,92,0.00,,,1.14,Wunderground v.1.15,2013-06-18 01:45:00,
2013-06-17 21:55:00,68.8,66.7,29.94,West,271,0.0,0.0,93,0.00,,,1.14,Wunderground v.1.15,2013-06-18 01:55:00,
2013-06-17 22:00:00,68.6,66.5,29.94,West,271,0.0,0.0,93,0.00,,,1.14,Wunderground v.1.15,2013-06-18 02:00:00,
2013-06-17 22:10:00,68.4,66.3,29.94,West,271,0.0,0.0,93,0.00,,,1.14,Wunderground v.1.15,2013-06-18 02:10:00,
2013-06-17 22:15:00,68.3,66.2,29.94,West,271,0.0,0.0,93,0.00,,,1.14,Wunderground v.1.15,2013-06-18 02:15:00,
2013-06-17 22:25:00,68.1,66.0,29.95,West,271,0.0,0.0,93,0.00,,,1.14,Wunderground v.1.15,2013-06-18 02:25:00,
2013-06-17 22:30:00,68.1,66.0,29.95,West,271,0.0,0.0,93,0.00,,,1.14,Wunderground v.1.15,2013-06-18 02:30:00,
2013-06-17 22:35:00,68.0,65.9,29.95,West,271,0.0,0.0,93,0.00,,,1.14,Wunderground v.1.15,2013-06-18 02:35:00,
2013-06-17 22:40:00,67.9,65.8,29.94,West,271,0.0,0.0,93,0.00,,,1.14,Wunderground v.1.15,2013-06-18 02:40:00,
2013-06-17 22:45:00,67.8,65.7,29.95,West,271,0.0,0.0,93,0.00,,,1.14,Wunderground v.1.15,2013-06-18 02:45:00,
2013-06-17 22:55:00,67.8,65.7,29.95,West,271,0.0,0.0,93,0.00,,,1.14,Wunderground v.1.15,2013-06-18 02:55:00,
2013-06-17 23:00:00,67.7,65.6,29.95,West,271,0.0,0.0,93,0.00,,,1.14,Wunderground v.1.15,2013-06-18 03:00:00,
2013-06-17 23:10:00,67.6,65.5,29.96,West,271,0.0,0.0,93,0.00,,,1.14,Wunderground v.1.15,2013-06-18 03:10:00,
2013-06-17 23:15:00,67.6,65.8,29.96,West,271,0.0,0.0,94,0.00,,,1.14,Wunderground v.1.15,2013-06-18 03:15:00,
2013-06-17 23:20:00,67.6,65.8,29.95,West,271,0.0,0.0,94,0.00,,,1.14,Wunderground v.1.15,2013-06-18 03:20:00,
2013-06-17 23:25:00,67.5,65.7,29.96,West,271,0.0,0.0,94,0.00,,,1.14,Wunderground v.1.15,2013-06-18 03:25:00,
2013-06-17 23:30:00,67.5,65.7,29.95,West,271,0.0,0.0,94,0.00,,,1.14,Wunderground v.1.15,2013-06-18 03:30:00,
2013-06-17 23:40:00,67.5,65.7,29.95,West,271,0.0,0.0,94,0.00,,,1.14,Wunderground v.1.15,2013-06-18 03:40:00,
2013-06-17 23:45:00,67.5,65.7,29.95,West,271,0.0,0.0,94,0.00,,,1.14,Wunderground v.1.15,2013-06-18 03:45:00,
2013-06-17 23:55:00,67.4,65.6,29.95,West,271,0.0,0.0,94,0.00,,,1.14,Wunderground v.1.15,2013-06-18 03:55:00,